Wind_Speed
26 25 23 13 15 17 18 20 26 25 24 23 16 16 13 17 16 15 13 9 9 11 9 13 15 16 16 15 15 16 18 18 17 19 19 19 19 19 17 15 14 14 16 18
23 21 20 9 10 11 11 15 16 20 20 17 16 14 13 11 11 10 10 9 8 8 6 8 12 15 13 11 13 15 16 19 17 17 18 18 19 18 17 15 13 14 15 17
24 19 16 10 6 5 8 7 9 12 15 14 12 10 10 11 9 8 7 4 4 5 8 10 13 10 11 12 13 14 15 16 15 17 18 18 18 16 14 12 13 13 15 14
26 17 18 13 5 6 3 3 5 6 8 12 11 9 10 10 10 6 0 2 3 8 14 16 12 11 11 12 13 13 14 14 16 17 16 15 15 14 12 13 13 14 12 14
25 17 18 13 11 8 7 2 2 4 5 3 7 8 8 8 6 5 8 2 4 10 16 14 12 11 12 13 15 16 15 14 15 15 14 13 12 11 12 12 13 15 13 11
25 19 19 17 15 12 10 8 6 2 5 6 4 5 5 6 7 4 1 4 5 9 9 10 11 12 12 13 14 14 14 14 13 12 10 9 9 8 10 13 13 15 12 10
25 21 21 20 19 18 14 13 11 9 8 7 9 7 5 5 5 5 7 6 5 8 8 9 10 12 13 14 14 13 13 13 13 11 9 8 9 9 10 13 16 17 13 9
25 24 23 22 22 22 19 17 16 13 13 11 11 12 12 10 8 7 7 9 9 10 11 12 12 12 12 13 14 15 14 14 13 13 11 10 9 11 12 14 17 18 15 11
24 24 24 24 23 24 25 21 18 17 17 15 14 13 13 13 15 15 14 12 13 11 11 11 14 17 17 15 14 15 15 16 16 16 14 14 12 13 14 16 18 19 16 13
24 24 25 25 22 26 25 26 24 21 21 22 19 17 17 17 17 17 21 21 20 19 17 16 14 14 16 19 21 21 20 19 19 18 17 16 15 15 17 18 17 19 17 17
24 22 26 27 26 25 30 28 28 25 23 24 23 23 22 22 23 23 23 25 25 25 25 24 22 20 17 16 15 17 20 24 23 23 22 21 18 18 19 18 18 19 19 18
26 22 22 25 27 27 30 31 29 27 25 25 25 24 23 27 30 29 29 29 27 28 29 29 29 28 26 24 20 19 17 19 22 25 26 24 21 20 20 20 19 20 21 19
24 24 23 24 27 27 28 31 30 28 25 27 30 28 29 31 34 35 37 37 36 34 33 32 31 33 29 28 25 25 24 22 20 22 24 24 21 22 23 22 20 21 20 19
25 23 22 23 24 27 29 29 27 26 26 24 32 32 33 35 38 40 41 45 45 43 38 36 34 30 28 31 30 28 25 25 21 20 21 23 22 23 24 23 24 24 21 20
24 21 20 20 21 20 21 22 24 23 24 22 30 36 42 47 50 53 56 56 53 49 46 41 37 33 27 25 25 22 24 22 20 19 21 22 24 22 24 24 26 26 25 23
20 18 16 16 15 15 16 16 17 17 18 25 32 37 34 39 48 57 64 57 62 56 49 44 39 35 33 27 22 20 19 17 17 18 20 23 24 25 23 23 26 29 27 26
16 11 9 10 11 11 13 11 9 11 17 20 18 21 32 42 35 33 37 46 53 49 46 43 37 34 34 29 24 24 25 20 16 17 19 21 24 27 27 24 24 27 29 30
14 10 8 8 9 11 9 5 4 11 6 10 16 25 31 39 21 8 12 28 42 40 36 28 27 30 28 24 21 23 25 20 16 16 18 18 23 27 28 29 28 27 28 29
12 12 10 8 10 7 9 4 4 7 4 10 11 19 25 23 26 30 33 41 34 25 21 19 21 18 19 17 20 20 19 19 18 18 18 18 21 23 26 28 28 27 27 27
16 14 12 10 7 2 5 3 7 6 2 8 10 12 14 13 9 10 18 12 33 13 19 16 14 15 16 15 16 19 21 21 20 20 18 19 21 22 23 25 26 26 25 24
14 13 12 10 7 6 8 8 5 4 1 3 5 9 6 4 4 6 13 17 19 13 22 17 16 14 16 18 18 16 18 20 21 21 21 20 20 21 23 23 24 25 25 25
17 13 12 12 13 9 12 10 7 5 2 3 3 4 1 7 5 3 4 10 15 17 18 15 8 11 17 18 20 21 23 24 24 23 22 22 19 18 21 21 20 21 22 21
23 18 14 12 13 11 16 19 17 11 7 8 7 4 4 6 6 5 6 7 7 9 13 12 12 17 19 16 18 20 20 20 19 18 19 19 18 16 18 17 16 17 18 18
20 20 18 15 16 14 15 23 21 19 15 13 12 13 11 10 11 11 10 10 9 10 9 13 14 13 15 18 19 19 18 18 17 17 18 13 13 11 11 13 13 15 19 18
20 15 15 17 18 18 18 19 26 25 22 20 18 17 19 17 16 17 12 11 8 8 10 9 8 8 8 10 12 16 18 17 15 15 13 10 8 14 15 17 20 21 20 20
19 17 17 17 19 21 22 21 23 27 29 27 25 23 21 21 23 19 16 12 14 14 11 10 11 9 7 6 4 6 9 10 8 6 5 5 9 7 7 10 13 18 19 20
22 19 19 21 20 22 21 25 28 26 26 30 34 31 28 26 26 22 19 18 17 18 19 20 16 12 13 12 10 8 6 6 5 3 3 4 4 3 3 5 7 7 8 9
Wind_Direction
326 328 332 4 17 30 35 51 52 55 51 62 88 114 101 114 119 123 141 132 144 165 178 175 166 167 173 177 191 202 208 205 207 206 209 214 211 210 206 197 197 199 213 226
324 319 325 348 0 30 29 38 66 67 63 81 86 92 100 108 114 119 135 141 157 186 198 178 181 162 173 191 203 208 207 208 211 202 199 201 192 193 197 198 206 219 219 227
319 308 312 307 326 3 20 46 61 83 82 87 94 91 94 105 118 124 133 136 152 173 191 166 176 195 196 198 200 195 192 186 184 179 181 184 188 193 203 210 219 222 223 224
311 301 294 300 262 292 307 30 82 91 108 109 125 100 86 106 99 91 206 232 196 200 177 178 188 187 189 187 181 180 172 178 178 181 185 191 199 206 210 212 221 213 204 224
306 294 282 277 260 247 259 285 69 112 132 124 148 146 140 143 104 58 45 70 163 167 171 177 188 186 185 183 178 179 181 185 183 183 193 201 208 210 216 220 210 206 207 227
301 289 273 275 266 244 238 247 267 256 170 186 199 200 203 192 183 183 73 72 156 179 186 188 191 193 190 191 191 195 194 188 188 191 204 215 225 221 220 224 210 207 215 236
298 280 262 275 257 248 239 244 245 255 255 222 207 222 242 253 251 232 207 174 157 189 206 205 200 200 201 202 207 207 203 197 200 209 219 230 235 240 238 230 218 215 228 240
288 274 266 270 261 256 234 239 240 242 255 252 236 233 224 230 239 245 231 211 195 195 201 216 216 212 211 212 214 217 216 212 215 226 234 239 243 246 249 239 226 222 234 244
293 267 268 261 269 253 258 235 237 240 248 253 261 258 252 237 224 233 230 227 222 219 211 212 218 221 220 221 218 223 225 228 229 233 241 246 250 253 254 245 232 229 240 248
293 272 269 260 264 251 249 253 236 238 244 251 254 257 259 258 255 243 235 231 230 229 234 236 234 228 228 231 234 235 235 234 237 239 243 250 253 248 250 242 235 234 242 252
292 278 263 266 259 257 244 249 246 242 244 250 252 254 256 259 259 256 252 244 238 234 232 233 240 234 234 239 236 238 241 242 241 242 244 246 250 248 248 242 242 239 244 250
297 280 262 257 261 259 245 244 248 246 249 256 258 256 255 255 258 257 256 253 247 241 239 237 235 238 242 247 253 248 249 248 245 245 247 248 248 247 246 244 239 239 244 248
294 287 270 256 260 254 243 242 244 248 251 254 260 259 260 262 263 259 250 248 246 244 241 239 237 235 237 247 255 257 257 257 252 248 247 247 250 248 246 242 238 237 241 244
301 293 274 263 268 259 246 238 244 257 261 259 263 262 267 273 271 266 259 249 244 242 240 241 238 238 240 244 251 256 258 259 253 249 246 243 244 243 239 240 239 235 239 245
307 295 280 274 267 248 235 237 249 257 261 276 283 286 282 277 271 261 251 245 241 238 239 237 238 235 237 239 246 257 258 261 260 246 245 249 248 247 242 245 244 242 240 248
311 303 278 262 247 234 235 242 251 267 283 293 292 291 293 283 273 260 251 242 235 231 232 231 234 232 236 238 242 255 259 264 263 255 248 248 253 253 244 242 249 245 245 246
322 302 270 243 234 236 243 245 259 304 305 305 309 351 349 339 307 275 250 231 221 212 220 222 226 230 233 236 246 258 260 267 265 258 254 253 251 253 255 251 250 249 249 249
333 324 277 244 242 236 228 215 310 309 322 5 2 2 3 6 10 31 184 185 182 176 197 201 217 226 233 238 247 251 257 255 249 249 250 254 258 257 258 258 258 256 254 254
321 324 315 282 251 209 193 199 262 300 310 343 343 5 13 20 64 76 106 142 162 159 182 207 205 212 222 229 235 241 244 245 248 255 256 254 257 261 261 262 263 262 261 258
322 311 302 306 257 192 248 213 244 244 1 15 25 34 48 55 43 99 103 138 151 165 198 218 204 207 212 214 226 229 240 246 253 257 251 249 253 261 266 264 264 261 259 255
298 314 309 293 274 253 227 239 232 177 166 49 31 9 66 113 136 108 135 166 184 182 186 208 213 219 220 229 239 245 249 254 260 267 269 261 260 259 264 264 258 254 250 250
291 294 297 296 281 235 218 205 212 235 218 220 307 325 327 185 189 154 134 174 210 219 222 226 222 239 237 242 245 252 255 256 260 266 270 269 267 263 256 256 251 245 242 241
276 283 276 284 294 266 219 216 224 242 232 208 208 227 229 221 216 213 203 189 200 214 218 236 257 233 239 254 253 251 251 246 251 260 268 273 277 264 248 244 237 236 240 245
266 267 276 275 277 277 267 234 234 238 237 228 210 202 217 235 246 247 242 241 262 229 243 248 254 247 248 250 246 246 242 242 249 262 264 270 279 245 232 233 236 244 253 260
287 275 263 262 259 258 259 258 240 236 237 232 231 225 227 232 236 236 242 241 242 237 237 226 226 244 252 253 249 239 240 247 251 250 241 212 181 183 202 212 226 239 251 256
299 279 258 258 260 255 250 250 248 242 235 237 235 231 230 230 232 238 229 245 234 239 237 245 237 241 244 248 249 233 231 232 238 242 232 197 208 208 208 228 240 248 257 265
292 287 276 256 259 259 261 254 249 246 243 240 235 236 233 230 234 239 238 240 242 246 249 248 252 256 257 260 263 258 249 237 229 231 290 312 332 1 27 26 13 9 0 304
Height
5642 5640 5638 5635 5632 5629 5626 5621 5617 5613 5610 5609 5606 5607 5609 5609 5611 5612 5613 5615 5616 5617 5618 5619 5621 5623 5626 5629 5632 5636 5638 5641 5644 5649 5652 5655 5658 5662 5666 5669 5674 5676 5679 5682
5638 5636 5635 5633 5631 5629 5627 5624 5620 5617 5616 5615 5614 5613 5613 5613 5614 5615 5616 5617 5618 5619 5619 5621 5622 5624 5628 5630 5633 5635 5637 5640 5643 5647 5651 5654 5657 5660 5664 5667 5670 5673 5676 5678
5633 5631 5631 5631 5629 5627 5628 5625 5622 5619 5617 5618 5617 5617 5616 5616 5617 5617 5617 5618 5618 5618 5620 5622 5624 5626 5628 5629 5632 5634 5636 5639 5643 5647 5649 5653 5656 5658 5661 5665 5667 5670 5672 5672
5627 5627 5626 5626 5626 5625 5625 5625 5622 5620 5619 5618 5618 5618 5619 5618 5618 5618 5617 5617 5617 5617 5619 5622 5624 5626 5628 5630 5632 5634 5637 5640 5642 5645 5649 5651 5654 5656 5659 5662 5664 5665 5667 5668
5621 5621 5620 5620 5622 5622 5621 5622 5621 5619 5618 5617 5618 5617 5617 5618 5618 5618 5617 5616 5616 5616 5618 5621 5623 5625 5627 5629 5631 5634 5637 5640 5643 5646 5648 5650 5652 5655 5657 5658 5659 5661 5663 5665
5615 5615 5615 5614 5616 5617 5618 5617 5618 5618 5617 5617 5616 5617 5616 5616 5616 5616 5617 5617 5617 5618 5620 5621 5623 5625 5627 5629 5632 5634 5637 5639 5642 5645 5646 5648 5650 5651 5653 5654 5655 5657 5660 5662
5608 5608 5608 5608 5609 5611 5612 5613 5613 5614 5614 5614 5614 5614 5615 5615 5615 5615 5615 5616 5616 5618 5619 5621 5622 5624 5626 5628 5630 5633 5635 5637 5640 5642 5644 5646 5646 5647 5648 5650 5652 5655 5658 5658
5600 5600 5601 5601 5601 5604 5606 5607 5609 5609 5609 5610 5610 5611 5611 5612 5613 5614 5615 5615 5615 5616 5617 5619 5621 5622 5624 5626 5628 5630 5633 5635 5637 5639 5641 5643 5644 5644 5646 5647 5650 5652 5653 5655
5591 5592 5592 5593 5594 5595 5599 5600 5602 5604 5604 5605 5606 5607 5608 5608 5609 5610 5611 5613 5614 5614 5615 5616 5617 5619 5621 5624 5626 5627 5630 5632 5634 5636 5637 5639 5640 5641 5641 5643 5645 5647 5649 5651
5584 5584 5584 5585 5586 5587 5590 5592 5594 5597 5598 5599 5600 5601 5602 5603 5604 5606 5606 5608 5609 5611 5613 5613 5615 5616 5617 5619 5621 5623 5625 5627 5630 5631 5633 5635 5636 5637 5638 5639 5644 5643 5644 5646
5575 5575 5575 5575 5578 5579 5581 5584 5586 5589 5591 5592 5594 5594 5595 5597 5597 5599 5601 5601 5603 5605 5606 5609 5610 5612 5613 5615 5616 5618 5620 5622 5624 5626 5628 5631 5632 5633 5635 5636 5637 5638 5640 5641
5567 5566 5566 5567 5568 5570 5573 5575 5578 5580 5583 5585 5584 5586 5588 5588 5588 5591 5592 5593 5596 5596 5598 5601 5603 5606 5608 5609 5612 5613 5616 5617 5619 5621 5622 5624 5626 5628 5630 5631 5632 5634 5635 5637
5559 5558 5558 5558 5560 5561 5563 5566 5569 5572 5574 5576 5575 5576 5576 5575 5576 5578 5581 5582 5584 5587 5590 5591 5594 5597 5601 5603 5606 5607 5609 5610 5613 5614 5615 5617 5620 5622 5624 5626 5627 5629 5630 5631
5552 5550 5550 5550 5551 5552 5554 5558 5562 5565 5567 5569 5566 5564 5564 5565 5564 5564 5566 5568 5570 5573 5578 5582 5586 5589 5592 5596 5599 5601 5603 5604 5607 5608 5609 5610 5613 5614 5617 5619 5621 5623 5624 5626
5545 5543 5543 5543 5544 5545 5548 5552 5556 5558 5560 5558 5555 5552 5550 5547 5543 5542 5543 5545 5551 5559 5565 5571 5577 5582 5585 5588 5592 5595 5597 5599 5601 5603 5604 5605 5606 5608 5611 5614 5615 5617 5619 5620
5540 5538 5537 5538 5539 5542 5545 5547 5550 5550 5549 5547 5544 5541 5533 5524 5513 5508 5511 5517 5526 5540 5549 5559 5567 5574 5578 5581 5586 5589 5590 5592 5594 5597 5598 5599 5600 5602 5605 5607 5608 5610 5612 5614
5538 5536 5535 5535 5537 5539 5541 5543 5543 5542 5540 5539 5537 5528 5513 5498 5483 5473 5473 5483 5506 5526 5538 5549 5558 5565 5570 5575 5580 5582 5584 5587 5589 5590 5591 5593 5595 5596 5598 5600 5602 5603 5605 5607
5537 5535 5534 5533 5534 5535 5536 5536 5537 5537 5537 5535 5530 5522 5512 5499 5477 5464 5465 5478 5499 5520 5534 5544 5552 5559 5565 5570 5573 5575 5577 5580 5582 5584 5585 5587 5588 5589 5591 5593 5594 5596 5597 5599
5535 5533 5532 5532 5532 5532 5533 5533 5535 5535 5534 5532 5528 5522 5517 5510 5499 5492 5492 5499 5512 5525 5536 5542 5549 5555 5561 5565 5567 5569 5572 5574 5576 5578 5579 5581 5581 5582 5583 5585 5587 5588 5589 5590
5534 5533 5531 5530 5530 5528 5531 5531 5533 5532 5532 5530 5527 5526 5523 5521 5516 5514 5516 5519 5524 5530 5537 5542 5546 5552 5556 5559 5562 5565 5567 5568 5570 5571 5573 5574 5575 5575 5576 5577 5578 5579 5580 5582
5531 5531 5530 5529 5528 5528 5528 5530 5530 5530 5530 5529 5528 5528 5526 5526 5524 5525 5526 5527 5529 5533 5539 5542 5546 5551 5553 5555 5558 5560 5562 5563 5564 5565 5566 5567 5567 5568 5568 5569 5570 5571 5572 5574
5528 5527 5527 5527 5526 5525 5527 5527 5527 5527 5528 5528 5528 5528 5528 5529 5529 5529 5530 5531 5533 5535 5539 5541 5545 5549 5549 5551 5553 5555 5556 5557 5558 5558 5559 5559 5560 5560 5561 5562 5562 5564 5565 5567
5522 5523 5523 5523 5523 5522 5522 5523 5524 5525 5525 5526 5527 5528 5528 5529 5530 5531 5532 5533 5535 5536 5537 5541 5543 5543 5545 5547 5548 5549 5550 5550 5551 5552 5553 5552 5552 5552 5554 5555 5556 5558 5559 5561
5516 5516 5516 5517 5517 5517 5518 5519 5520 5522 5522 5523 5524 5526 5527 5528 5529 5529 5530 5532 5533 5535 5536 5537 5538 5539 5540 5541 5542 5543 5544 5546 5546 5547 5548 5548 5547 5547 5549 5550 5552 5553 5553 5555
5509 5509 5509 5510 5510 5511 5511 5512 5514 5515 5517 5518 5520 5522 5524 5524 5525 5527 5528 5530 5531 5532 5533 5534 5535 5535 5536 5536 5536 5538 5539 5541 5542 5543 5543 5544 5543 5542 5541 5543 5544 5546 5547 5549
5503 5502 5502 5502 5503 5503 5504 5505 5506 5508 5510 5512 5514 5516 5518 5520 5520 5522 5525 5526 5527 5530 5530 5531 5532 5533 5533 5533 5534 5534 5536 5537 5538 5539 5539 5539 5539 5539 5539 5540 5540 5541 5542 5543
5499 5496 5495 5494 5494 5495 5496 5497 5498 5500 5501 5504 5506 5509 5511 5514 5515 5518 5521 5522 5523 5524 5526 5527 5528 5529 5530 5531 5532 5532 5533 5534 5535 5536 5536 5536 5537 5537 5536 5536 5537 5537 5537 5537